Location: Croydon
(51.3762°N, 0.0982°W)
Time: 02:13:06
(UTC+01:00)

Envisat - Pass Details

Date: 19 February 2019
Orbit: 764 x 766 km, 98.1° (Epoch: 19 October)

Event Time Altitude Azimuth Distance (km) Brightness Sun altitude
Rises 19:29:06 0° 195° (SSW) 3,220 6.3 -20.4°
Reaches altitude 10° 19:31:40 10° 206° (SSW) 2,299 5.7 -20.8°
Maximum altitude 19:36:04 29° 267° (W) 1,373 5.0 -21.4°
Drops below altitude 10° 19:40:30 10° 327° (NNW) 2,313 6.0 -22.1°
Sets 19:43:06 0° 338° (NNW) 3,245 6.7 -22.5°
